Flag for Germany Weather past 2 weeks in Waiblingen, Baden-Württemberg, Germany

Now
64 °F

Clear.


Feels Like: 64 °F
Forecast: 57 / 82 °F
Wind: 1 mph from North

Location: Stuttgart-Echterdingen

Current Time: Jun 30, 2015 at 1:41:31 AM

Latest Report: Jun 30, 2015 at 1:20 AM


Visibility: 10 mi

Pressure: 30.18 "Hg

Humidity: 78%

Dew point: 57 °F

Location of WaiblingenLocation

Historic Weather in Waiblingen — Graph

°F

Waiblingen temperature yesterday

Maximum temperature yesterday: 79 °F (at 3:50 PM)
Minimum temperature yesterday: 57 °F (at 2:20 AM)
Average temperature yesterday: 68 °F

Past Weeks' High & Low Weather Summary

 TemperatureHumidityPressure
High79 °F (Jun 29, 3:50 PM)100% (Jun 18, 3:50 PM)30.24 "Hg (Jun 18, 3:50 PM)
Low46 °F (Jun 24, 4:50 AM)36% (Jun 26, 6:20 PM)29.74 "Hg (Jun 22, 8:50 PM)
Average61 °F73%30.09 "Hg
* Reported Jun 15 12:20 AM — Jun 30 12:20 AM, Waiblingen, Weather by CustomWeather, © 2015

Note: Actual official high and low records may vary slightly from our data, if they occured in-between our weather recording intervals... More about our weather records

Advertising

Waiblingen weather history for previous 24 hours

 ConditionsComfort  
Time TempWeatherWind HumidityBarometerVisibility
12:20 AM
Tue, Jun 30
66 °FClear.2 mph73%30.18 "Hg10 mi
11:20 PM
Mon, Jun 29
68 °FClear.3 mph69%30.18 "Hg10 mi
10:50 PM68 °FClear.2 mph69%30.18 "Hg10 mi
10:20 PM70 °FSunny.1 mph64%30.18 "Hg10 mi
9:50 PM72 °FSunny.5 mph61%30.18 "Hg10 mi
9:20 PM75 °FSunny.2 mph47%30.15 "Hg10 mi
8:50 PM77 °FSunny.2 mph42%30.15 "Hg10 mi
8:20 PM77 °FSunny.2 mph44%30.15 "Hg10 mi
7:50 PM79 °FSunny.1 mph45%30.15 "Hg10 mi
7:20 PM79 °FSunny.2 mph51%30.15 "Hg10 mi
6:50 PM79 °FPassing clouds.3 mph45%30.15 "HgN/A
6:20 PM79 °FSunny.2 mph48%30.15 "Hg10 mi
5:50 PM79 °FSunny.2 mph48%30.15 "Hg10 mi
5:20 PM79 °FSunny.2 mph42%30.15 "Hg10 mi
4:50 PM79 °FSunny.1 mph45%30.15 "Hg10 mi
4:20 PM79 °FSunny.2 mph45%30.15 "Hg10 mi
3:50 PM79 °FSunny.3 mph45%30.15 "Hg10 mi
3:20 PM77 °FPassing clouds.3 mph51%30.15 "HgN/A
2:50 PM77 °FSunny.3 mph47%30.18 "Hg10 mi
2:20 PM77 °FScattered clouds.2 mph47%30.18 "HgN/A
1:50 PM75 °FScattered clouds.3 mph54%30.18 "HgN/A
1:20 PM75 °FPartly sunny.2 mph50%30.18 "HgN/A
12:50 PM75 °FPartly sunny.3 mph57%30.18 "HgN/A
12:20 PM75 °FPartly sunny.6 mph57%30.18 "HgN/A
11:50 AM73 °FPartly sunny.3 mph57%30.18 "HgN/A
11:20 AM72 °FSunny.1 mph61%30.18 "Hg10 mi
10:50 AM72 °FSunny.2 mph61%30.18 "Hg10 mi
10:20 AM68 °FSunny.2 mph64%30.18 "Hg10 mi
9:50 AM66 °FSunny.2 mph64%30.18 "Hg10 mi
9:20 AM64 °FSunny.1 mph73%30.18 "Hg10 mi
8:50 AM63 °FSunny.1 mph77%30.18 "Hg10 mi
8:20 AM61 °FSunny.1 mph83%30.18 "Hg10 mi
7:50 AM59 °FSunny.1 mph88%30.18 "Hg10 mi
7:20 AM57 °FSunny.2 mph94%30.18 "Hg10 mi
6:50 AM57 °FSunny.2 mph94%30.15 "Hg10 mi
6:20 AM57 °FClear.1 mph88%30.15 "Hg10 mi
5:50 AM57 °FClear.1 mph88%30.15 "Hg10 mi
5:20 AM57 °FClear.1 mph82%30.15 "Hg10 mi
4:50 AM57 °FClear.1 mph88%30.15 "Hg10 mi
4:20 AM57 °FClear.1 mph82%30.15 "Hg10 mi
3:50 AM57 °FClear.2 mph82%30.15 "Hg10 mi
3:20 AM57 °FClear.1 mph88%30.15 "Hg10 mi
2:50 AM57 °FClear.No wind82%30.15 "Hg10 mi
2:20 AM57 °FClear.1 mph82%30.18 "Hg10 mi
1:50 AM59 °FClear.2 mph77%30.18 "Hg10 mi
1:20 AM59 °FClear.3 mph77%30.18 "Hg10 mi
Weather by CustomWeather, © 2015

See weather overviewHow to use our weather pages